| time (UTC) | temp F | wind direction | speed knots | gust knots | rain 1hr in | rain 24hr in | rain mn in | humidity % | barometer mb |
| 20260902194432 | 98 | 35 | 0.0 | 0.9 | 0.00 | 0.00 | 0.00 | 49 | 1010.8 |
| 20260902193927 | 98 | 26 | 0.0 | 0.9 | 0.00 | 0.00 | 0.00 | 49 | 1011.1 |
| 20260902193423 | 98 | 21 | 0.0 | 0.9 | 0.00 | 0.00 | 0.00 | 49 | 1011.0 |
| 20260902192921 | 97 | 24 | 0.0 | 1.7 | 0.00 | 0.00 | 0.00 | 51 | 1011.1 |
| 20260902192420 | 98 | 34 | 0.0 | 1.7 | 0.00 | 0.00 | 0.00 | 50 | 1011.1 |
| 20260902191919 | 98 | 28 | 0.9 | 1.7 | 0.00 | 0.00 | 0.00 | 49 | 1011.2 |
| 20260902191415 | 97 | 23 | 0.0 | 0.0 | 0.00 | 0.00 | 0.00 | 51 | 1011.3 |
| 20260902190910 | 96 | 17 | 1.7 | 1.7 | 0.00 | 0.00 | 0.00 | 51 | 1011.3 |
| 20260902190405 | 97 | 32 | 2.6 | 5.2 | 0.00 | 0.00 | 0.00 | 50 | 1011.4 |
| 20260902185901 | 96 | 28 | 0.0 | 1.7 | 0.00 | 0.00 | 0.00 | 51 | 1011.2 |
| 20260902185356 | 96 | 51 | 1.7 | 2.6 | 0.00 | 0.00 | 0.00 | 51 | 1011.4 |
| 20260902184851 | 96 | 21 | 0.0 | 0.9 | 0.00 | 0.00 | 0.00 | 52 | 1011.6 |
| 20260902184347 | 95 | 25 | 0.0 | 1.7 | 0.00 | 0.00 | 0.00 | 53 | 1011.6 |
| 20260902183842 | 95 | 33 | 0.0 | 0.9 | 0.00 | 0.00 | 0.00 | 53 | 1011.8 |
| 20260902183339 | 95 | 33 | 0.0 | 1.7 | 0.00 | 0.00 | 0.00 | 53 | 1011.7 |
| 20260902182834 | 94 | 21 | 0.9 | 1.7 | 0.00 | 0.00 | 0.00 | 57 | 1011.8 |
| 20260902182331 | 93 | 31 | 0.9 | 0.9 | 0.00 | 0.00 | 0.00 | 57 | 1011.9 |
| 20260902181827 | 93 | 33 | 0.9 | 1.7 | 0.00 | 0.00 | 0.00 | 57 | 1012.0 |
| 20260902181322 | 93 | 22 | 0.0 | 0.0 | 0.00 | 0.00 | 0.00 | 57 | 1011.8 |
| 20260902180821 | 93 | 21 | 0.0 | 0.9 | 0.00 | 0.00 | 0.00 | 55 | 1011.6 |
| 20260902180317 | 93 | 9 | 0.0 | 1.7 | 0.00 | 0.00 | 0.00 | 56 | 1011.9 |
| 20260902175812 | 93 | 11 | 0.0 | 1.7 | 0.00 | 0.00 | 0.00 | 56 | 1011.9 |
| 20260902175308 | 93 | 14 | 0.0 | 0.0 | 0.00 | 0.00 | 0.00 | 56 | 1012.0 |
| 20260902174803 | 93 | 14 | 0.0 | 0.0 | 0.00 | 0.00 | 0.00 | 57 | 1012.0 |
| 20260902174300 | 93 | 13 | 0.0 | 1.7 | 0.00 | 0.00 | 0.00 | 56 | 1011.9 |
| 20260902173755 | 92 | 351 | 4.3 | 6.1 | 0.00 | 0.00 | 0.00 | 55 | 1012.2 |
| 20260902173249 | 92 | 330 | 2.6 | 2.6 | 0.00 | 0.00 | 0.00 | 54 | 1012.2 |
| 20260902172744 | 92 | 5 | 1.7 | 2.6 | 0.00 | 0.00 | 0.00 | 55 | 1012.2 |
| 20260902172243 | 92 | 10 | 0.9 | 2.6 | 0.00 | 0.00 | 0.00 | 57 | 1012.3 |
| 20260902171738 | 92 | 354 | 1.7 | 2.6 | 0.00 | 0.00 | 0.00 | 57 | 1012.3 |
| 20260902171234 | 91 | 341 | 2.6 | 2.6 | 0.00 | 0.00 | 0.00 | 59 | 1012.3 |
| 20260902170730 | 91 | 349 | 1.7 | 2.6 | 0.00 | 0.00 | 0.00 | 60 | 1012.5 |
| 20260902170225 | 91 | 8 | 0.9 | 1.7 | 0.00 | 0.00 | 0.00 | 60 | 1012.6 |
| 20260902165720 | 91 | 349 | 1.7 | 4.3 | 0.00 | 0.00 | 0.00 | 58 | 1012.4 |
| 20260902165215 | 91 | 336 | 1.7 | 2.6 | 0.00 | 0.00 | 0.00 | 59 | 1012.5 |
| 20260902164714 | 91 | 353 | 1.7 | 2.6 | 0.00 | 0.00 | 0.00 | 59 | 1012.7 |
| 20260902164209 | 91 | 35 | 0.0 | 1.7 | 0.00 | 0.00 | 0.00 | 60 | 1012.5 |
| 20260902163704 | 90 | 23 | 0.9 | 1.7 | 0.00 | 0.00 | 0.00 | 61 | 1012.7 |
| 20260902163204 | 90 | 11 | 1.7 | 1.7 | 0.00 | 0.00 | 0.00 | 63 | 1012.7 |
| 20260902162702 | 90 | 15 | 0.9 | 1.7 | 0.00 | 0.00 | 0.00 | 64 | 1012.5 |
| 20260902162156 | 90 | 300 | 2.6 | 4.3 | 0.00 | 0.00 | 0.00 | 62 | 1012.7 |
| 20260902161652 | 90 | 357 | 1.7 | 2.6 | 0.00 | 0.00 | 0.00 | 64 | 1012.9 |
| 20260902161147 | 89 | 344 | 1.7 | 1.7 | 0.00 | 0.00 | 0.00 | 63 | 1012.8 |
| 20260902160644 | 89 | 347 | 2.6 | 4.3 | 0.00 | 0.00 | 0.00 | 62 | 1012.9 |
| 20260902160138 | 89 | 1 | 0.9 | 1.7 | 0.00 | 0.00 | 0.00 | 66 | 1012.9 |
| 20260902155637 | 89 | 10 | 0.9 | 1.7 | 0.00 | 0.00 | 0.00 | 66 | 1012.9 |
| 20260902155136 | 88 | 0 | 1.7 | 1.7 | 0.00 | 0.00 | 0.00 | 66 | 1012.8 |
| 20260902154631 | 88 | 13 | 0.0 | 0.9 | 0.00 | 0.00 | 0.00 | 68 | 1012.9 |
| 20260902154126 | 88 | 11 | 0.9 | 0.9 | 0.00 | 0.00 | 0.00 | 68 | 1013.0 |
| 20260902153625 | 87 | 353 | 0.9 | 1.7 | 0.00 | 0.00 | 0.00 | 68 | 1013.1 |
| 20260902153120 | 87 | 9 | 0.9 | 1.7 | 0.00 | 0.00 | 0.00 | 69 | 1013.1 |
| 20260902152616 | 87 | 14 | 0.9 | 1.7 | 0.00 | 0.00 | 0.00 | 70 | 1013.1 |
| 20260902152112 | 87 | 7 | 1.7 | 1.7 | 0.00 | 0.00 | 0.00 | 70 | 1013.2 |
| 20260902151608 | 87 | 353 | 0.9 | 1.7 | 0.00 | 0.00 | 0.00 | 69 | 1013.1 |
| 20260902151107 | 87 | 335 | 1.7 | 2.6 | 0.00 | 0.00 | 0.00 | 70 | 1013.0 |
| 20260902150603 | 86 | 343 | 2.6 | 2.6 | 0.00 | 0.00 | 0.00 | 70 | 1013.0 |
| 20260902150058 | 86 | 326 | 2.6 | 2.6 | 0.00 | 0.00 | 0.00 | 68 | 1013.1 |
| 20260902145558 | 86 | 337 | 2.6 | 4.3 | 0.00 | 0.00 | 0.00 | 69 | 1013.1 |
| 20260902145057 | 86 | 359 | 0.9 | 2.6 | 0.00 | 0.00 | 0.00 | 70 | 1013.1 |
| 20260902144555 | 86 | 339 | 1.7 | 2.6 | 0.00 | 0.00 | 0.00 | 72 | 1013.2 |
| 20260902144055 | 86 | 0 | 0.9 | 1.7 | 0.00 | 0.00 | 0.00 | 71 | 1012.9 |
| 20260902143550 | 86 | 348 | 1.7 | 2.6 | 0.00 | 0.00 | 0.00 | 71 | 1013.0 |
| 20260902143045 | 85 | 352 | 2.6 | 2.6 | 0.00 | 0.00 | 0.00 | 71 | 1012.9 |
| 20260902142543 | 85 | 348 | 0.9 | 1.7 | 0.00 | 0.00 | 0.00 | 72 | 1013.1 |
| 20260902142036 | 84 | 3 | 1.7 | 1.7 | 0.00 | 0.00 | 0.00 | 73 | 1012.9 |
| 20260902141536 | 84 | 14 | 0.0 | 1.7 | 0.00 | 0.00 | 0.00 | 74 | 1012.9 |
| 20260902141031 | 84 | 319 | 2.6 | 2.6 | 0.00 | 0.00 | 0.00 | 75 | 1013.0 |
| 20260902140526 | 83 | 354 | 0.0 | 1.7 | 0.00 | 0.00 | 0.00 | 77 | 1012.9 |
| 20260902140021 | 82 | 15 | 0.0 | 0.9 | 0.00 | 0.00 | 0.00 | 79 | 1013.1 |
| 20260902135520 | 82 | 15 | 0.0 | 0.0 | 0.00 | 0.00 | 0.00 | 80 | 1012.9 |
| 20260902135015 | 82 | 15 | 0.0 | 0.0 | 0.00 | 0.00 | 0.00 | 80 | 1012.9 |
| 20260902134511 | 81 | 15 | 0.0 | 0.0 | 0.00 | 0.00 | 0.00 | 81 | 1013.1 |
| 20260902134006 | 81 | 15 | 0.0 | 0.0 | 0.00 | 0.00 | 0.00 | 81 | 1012.9 |
| 20260902133501 | 81 | 15 | 0.0 | 0.9 | 0.00 | 0.00 | 0.00 | 82 | 1013.3 |
| 20260902132955 | 80 | 15 | 0.0 | 0.0 | 0.00 | 0.00 | 0.00 | 82 | 1013.2 |
| 20260902132450 | 80 | 15 | 0.0 | 0.0 | 0.00 | 0.00 | 0.00 | 83 | 1013.1 |
| 20260902131945 | 80 | 15 | 0.0 | 0.9 | 0.00 | 0.00 | 0.00 | 83 | 1013.1 |
| 20260902131442 | 79 | 14 | 0.0 | 0.0 | 0.00 | 0.00 | 0.00 | 84 | 1013.1 |
| 20260902130941 | 79 | 17 | 0.0 | 0.9 | 0.00 | 0.00 | 0.00 | 84 | 1013.1 |
| 20260902130437 | 79 | 19 | 0.0 | 0.0 | 0.00 | 0.00 | 0.00 | 84 | 1013.1 |
| 20260902125932 | 79 | 18 | 0.9 | 0.9 | 0.00 | 0.00 | 0.00 | 84 | 1013.0 |
| 20260902125428 | 78 | 19 | 0.9 | 0.9 | 0.00 | 0.00 | 0.00 | 84 | 1013.2 |
| 20260902124924 | 78 | 8 | 0.9 | 0.9 | 0.00 | 0.00 | 0.00 | 85 | 1013.4 |
| 20260902124419 | 78 | 19 | 0.0 | 0.9 | 0.00 | 0.00 | 0.00 | 86 | 1013.4 |
| 20260902123914 | 77 | 7 | 0.9 | 0.9 | 0.00 | 0.00 | 0.00 | 87 | 1013.2 |
| 20260902123411 | 77 | 13 | 0.9 | 0.9 | 0.00 | 0.00 | 0.00 | 88 | 1013.4 |
| 20260902122909 | 77 | 19 | 0.0 | 0.9 | 0.00 | 0.00 | 0.00 | 88 | 1013.2 |
| 20260902122405 | 77 | 17 | 0.9 | 0.9 | 0.00 | 0.00 | 0.00 | 89 | 1013.3 |
| 20260902121900 | 77 | 359 | 1.7 | 1.7 | 0.00 | 0.00 | 0.00 | 90 | 1013.3 |
| 20260902121355 | 77 | 21 | 0.9 | 1.7 | 0.00 | 0.00 | 0.00 | 90 | 1013.5 |
| 20260902120850 | 77 | 15 | 0.0 | 0.9 | 0.00 | 0.00 | 0.00 | 90 | 1013.2 |
| 20260902120346 | 77 | 326 | 0.0 | 0.9 | 0.00 | 0.00 | 0.00 | 90 | 1013.2 |
| 20260902115840 | 76 | 325 | 0.9 | 1.7 | 0.00 | 0.00 | 0.00 | 91 | 1013.3 |
| 20260902115337 | 76 | 329 | 0.0 | 0.9 | 0.00 | 0.00 | 0.00 | 91 | 1013.1 |
| 20260902114833 | 76 | 317 | 1.7 | 1.7 | 0.00 | 0.00 | 0.00 | 91 | 1013.3 |
| 20260902114328 | 76 | 332 | 0.0 | 0.0 | 0.00 | 0.00 | 0.00 | 90 | 1012.9 |
| 20260902113828 | 76 | 333 | 0.0 | 0.0 | 0.00 | 0.00 | 0.00 | 90 | 1013.2 |
| 20260902113325 | 75 | 333 | 0.0 | 0.0 | 0.00 | 0.00 | 0.00 | 90 | 1013.0 |
| 20260902112823 | 75 | 334 | 0.0 | 0.0 | 0.00 | 0.00 | 0.00 | 90 | 1012.9 |
| 20260902112320 | 75 | 334 | 0.0 | 0.0 | 0.00 | 0.00 | 0.00 | 90 | 1012.8 |
| 20260902111815 | 75 | 334 | 0.0 | 0.0 | 0.00 | 0.00 | 0.00 | 90 | 1013.1 |
| 20260902111312 | 75 | 337 | 0.0 | 0.0 | 0.00 | 0.00 | 0.00 | 90 | 1013.1 |
| 20260902110807 | 75 | 337 | 0.0 | 0.0 | 0.00 | 0.00 | 0.00 | 90 | 1012.9 |
| 20260902110303 | 75 | 337 | 0.0 | 0.0 | 0.00 | 0.00 | 0.00 | 90 | 1012.6 |
| 20260902105802 | 75 | 337 | 0.0 | 0.0 | 0.00 | 0.00 | 0.00 | 90 | 1012.7 |
| 20260902105257 | 75 | 337 | 0.0 | 0.0 | 0.00 | 0.00 | 0.00 | 90 | 1012.7 |
| 20260902104753 | 75 | 337 | 0.0 | 0.0 | 0.00 | 0.00 | 0.00 | 90 | 1012.8 |
| 20260902104249 | 75 | 337 | 0.0 | 0.0 | 0.00 | 0.00 | 0.00 | 90 | 1012.6 |
| 20260902103749 | 75 | 338 | 0.0 | 0.0 | 0.00 | 0.00 | 0.00 | 89 | 1012.6 |
| 20260902103248 | 76 | 338 | 0.0 | 0.0 | 0.00 | 0.00 | 0.00 | 89 | 1012.7 |
| 20260902102744 | 76 | 338 | 0.0 | 0.0 | 0.00 | 0.00 | 0.00 | 89 | 1012.4 |
| 20260902102242 | 76 | 338 | 0.0 | 0.0 | 0.00 | 0.00 | 0.00 | 89 | 1012.5 |
| 20260902101737 | 76 | 338 | 0.0 | 0.0 | 0.00 | 0.00 | 0.00 | 89 | 1012.5 |
| 20260902101231 | 76 | 338 | 0.0 | 0.0 | 0.00 | 0.00 | 0.00 | 89 | 1012.5 |
| 20260902100731 | 76 | 338 | 0.0 | 0.0 | 0.00 | 0.00 | 0.00 | 89 | 1012.3 |
| 20260902100225 | 76 | 339 | 0.0 | 0.0 | 0.00 | 0.00 | 0.00 | 89 | 1012.3 |
| 20260902095720 | 76 | 336 | 0.0 | 0.0 | 0.00 | 0.00 | 0.00 | 89 | 1012.4 |
| 20260902095214 | 76 | 336 | 0.0 | 0.0 | 0.00 | 0.00 | 0.00 | 88 | 1012.3 |
| 20260902094708 | 76 | 336 | 0.0 | 0.0 | 0.00 | 0.00 | 0.00 | 88 | 1012.4 |
| 20260902094206 | 76 | 337 | 0.0 | 0.0 | 0.00 | 0.00 | 0.00 | 88 | 1012.5 |
| 20260902093704 | 76 | 337 | 0.0 | 0.0 | 0.00 | 0.00 | 0.00 | 88 | 1012.4 |
| 20260902093200 | 76 | 337 | 0.0 | 0.0 | 0.00 | 0.00 | 0.00 | 88 | 1012.5 |
| 20260902092700 | 76 | 336 | 0.0 | 0.0 | 0.00 | 0.00 | 0.00 | 88 | 1012.1 |
| 20260902092155 | 76 | 336 | 0.0 | 0.0 | 0.00 | 0.00 | 0.00 | 88 | 1012.4 |
| 20260902091654 | 76 | 336 | 0.0 | 0.0 | 0.00 | 0.00 | 0.00 | 87 | 1012.2 |
| 20260902091152 | 76 | 338 | 0.0 | 0.0 | 0.00 | 0.00 | 0.00 | 87 | 1012.2 |
| 20260902090647 | 76 | 336 | 0.0 | 0.0 | 0.00 | 0.00 | 0.00 | 87 | 1012.1 |
| 20260902090146 | 76 | 336 | 0.0 | 0.0 | 0.00 | 0.00 | 0.00 | 87 | 1012.1 |
| 20260902085641 | 76 | 336 | 0.0 | 0.0 | 0.00 | 0.00 | 0.00 | 87 | 1012.2 |
| 20260902085136 | 76 | 336 | 0.0 | 0.0 | 0.00 | 0.00 | 0.00 | 87 | 1012.1 |
| 20260902084632 | 76 | 336 | 0.0 | 0.0 | 0.00 | 0.00 | 0.00 | 86 | 1012.0 |
| 20260902084127 | 76 | 336 | 0.0 | 0.0 | 0.00 | 0.00 | 0.00 | 86 | 1011.9 |
| 20260902083623 | 77 | 336 | 0.0 | 0.0 | 0.00 | 0.00 | 0.00 | 86 | 1012.0 |
| 20260902083122 | 77 | 336 | 0.0 | 0.0 | 0.00 | 0.00 | 0.00 | 86 | 1011.9 |
| 20260902082618 | 77 | 336 | 0.0 | 0.0 | 0.00 | 0.00 | 0.00 | 86 | 1011.9 |
| 20260902082114 | 77 | 336 | 0.0 | 0.0 | 0.00 | 0.00 | 0.00 | 86 | 1011.8 |
| 20260902081611 | 77 | 336 | 0.0 | 0.0 | 0.00 | 0.00 | 0.00 | 86 | 1011.8 |
| 20260902081105 | 77 | 336 | 0.0 | 0.0 | 0.00 | 0.00 | 0.00 | 85 | 1011.9 |
| 20260902080600 | 77 | 335 | 0.0 | 0.0 | 0.00 | 0.00 | 0.00 | 85 | 1011.8 |
| 20260902080057 | 77 | 336 | 0.0 | 0.0 | 0.00 | 0.00 | 0.00 | 85 | 1011.6 |
| 20260902075556 | 77 | 335 | 0.0 | 0.0 | 0.00 | 0.00 | 0.00 | 85 | 1011.6 |
| 20260902075052 | 77 | 336 | 0.0 | 0.0 | 0.00 | 0.00 | 0.00 | 85 | 1011.8 |
| 20260902074547 | 77 | 335 | 0.0 | 0.0 | 0.00 | 0.00 | 0.00 | 85 | 1011.4 |
| 20260902074043 | 77 | 339 | 0.0 | 0.0 | 0.00 | 0.00 | 0.00 | 85 | 1011.7 |
| 20260902073538 | 77 | 336 | 0.0 | 0.0 | 0.00 | 0.00 | 0.00 | 85 | 1011.5 |
| 20260902073034 | 77 | 336 | 0.0 | 0.0 | 0.00 | 0.00 | 0.00 | 84 | 1011.5 |
| 20260902072530 | 77 | 337 | 0.0 | 0.0 | 0.00 | 0.00 | 0.00 | 84 | 1011.7 |
| 20260902072027 | 77 | 338 | 0.0 | 0.0 | 0.00 | 0.00 | 0.00 | 84 | 1011.9 |
| 20260902071525 | 77 | 337 | 0.0 | 0.0 | 0.00 | 0.00 | 0.00 | 85 | 1011.9 |
| 20260902071022 | 77 | 337 | 0.0 | 0.0 | 0.00 | 0.00 | 0.00 | 85 | 1011.7 |
| 20260902070518 | 77 | 336 | 0.0 | 0.0 | 0.00 | 0.00 | 0.00 | 85 | 1011.9 |
| 20260902070017 | 77 | 336 | 0.0 | 0.0 | 0.00 | 0.00 | 0.00 | 85 | 1011.9 |
| 20260902065511 | 77 | 336 | 0.0 | 0.0 | 0.00 | 0.00 | 0.00 | 86 | 1012.0 |
| 20260902065006 | 78 | 336 | 0.0 | 0.0 | 0.00 | 0.00 | 0.00 | 86 | 1011.7 |
| 20260902064502 | 78 | 337 | 0.0 | 0.0 | 0.00 | 0.00 | 0.00 | 86 | 1011.9 |
| 20260902063958 | 77 | 337 | 0.0 | 0.0 | 0.00 | 0.00 | 0.00 | 86 | 1011.8 |
| 20260902063457 | 77 | 337 | 0.0 | 0.0 | 0.00 | 0.00 | 0.00 | 87 | 1011.8 |
| 20260902062953 | 77 | 337 | 0.0 | 0.0 | 0.00 | 0.00 | 0.00 | 88 | 1011.9 |
| 20260902062445 | 77 | 337 | 0.0 | 0.0 | 0.00 | 0.00 | 0.00 | 88 | 1011.9 |
| 20260902061941 | 77 | 337 | 0.0 | 0.0 | 0.00 | 0.00 | 0.00 | 89 | 1012.0 |
| 20260902061436 | 77 | 336 | 0.0 | 0.0 | 0.00 | 0.00 | 0.00 | 90 | 1012.1 |
| 20260902060932 | 78 | 337 | 0.0 | 0.0 | 0.00 | 0.00 | 0.00 | 90 | 1012.2 |
| 20260902060428 | 78 | 337 | 0.0 | 0.0 | 0.00 | 0.00 | 0.00 | 90 | 1012.0 |
| 20260902055923 | 78 | 337 | 0.0 | 0.0 | 0.00 | 0.00 | 0.00 | 90 | 1012.0 |
| 20260902055420 | 78 | 337 | 0.0 | 0.0 | 0.00 | 0.00 | 0.00 | 90 | 1012.0 |
| 20260902054915 | 78 | 337 | 0.0 | 0.0 | 0.00 | 0.00 | 0.00 | 90 | 1011.9 |
| 20260902054410 | 78 | 337 | 0.0 | 0.0 | 0.00 | 0.00 | 0.00 | 90 | 1011.7 |
| 20260902053905 | 78 | 337 | 0.0 | 0.0 | 0.00 | 0.00 | 0.00 | 90 | 1012.0 |
| 20260902053400 | 78 | 337 | 0.0 | 0.0 | 0.00 | 0.00 | 0.00 | 90 | 1011.9 |
| 20260902052859 | 78 | 337 | 0.0 | 0.0 | 0.00 | 0.00 | 0.00 | 90 | 1011.7 |
| 20260902052354 | 78 | 338 | 0.0 | 0.0 | 0.00 | 0.00 | 0.00 | 90 | 1012.0 |
| 20260902051850 | 79 | 337 | 0.0 | 0.0 | 0.00 | 0.00 | 0.00 | 90 | 1012.0 |
| 20260902051349 | 78 | 337 | 0.0 | 0.0 | 0.00 | 0.00 | 0.00 | 90 | 1011.9 |
| 20260902050844 | 79 | 337 | 0.0 | 0.0 | 0.00 | 0.00 | 0.00 | 90 | 1012.1 |
| 20260902050343 | 79 | 337 | 0.0 | 0.0 | 0.00 | 0.00 | 0.00 | 90 | 1011.7 |
| 20260902045838 | 79 | 338 | 0.0 | 0.9 | 0.00 | 0.00 | 0.00 | 90 | 1011.7 |
| 20260902045334 | 79 | 338 | 0.0 | 0.0 | 0.00 | 0.00 | 0.00 | 90 | 1012.0 |
| 20260902044830 | 79 | 338 | 0.0 | 0.0 | 0.00 | 0.00 | 0.00 | 90 | 1011.7 |
| 20260902044326 | 79 | 338 | 0.0 | 0.0 | 0.00 | 0.00 | 0.00 | 90 | 1011.6 |
| 20260902043827 | 79 | 338 | 0.0 | 0.0 | 0.00 | 0.00 | 0.00 | 90 | 1011.7 |
| 20260902043321 | 80 | 339 | 0.0 | 0.9 | 0.00 | 0.00 | 0.00 | 90 | 1011.7 |
| 20260902042820 | 80 | 343 | 0.0 | 0.9 | 0.00 | 0.00 | 0.00 | 90 | 1011.7 |
| 20260902042315 | 80 | 341 | 0.0 | 0.0 | 0.00 | 0.00 | 0.00 | 90 | 1011.4 |
| 20260902041811 | 80 | 336 | 0.0 | 0.0 | 0.00 | 0.00 | 0.00 | 90 | 1011.7 |
| 20260902041310 | 80 | 336 | 0.0 | 0.0 | 0.00 | 0.00 | 0.00 | 90 | 1011.7 |
| 20260902040809 | 80 | 333 | 0.0 | 0.0 | 0.00 | 0.00 | 0.00 | 89 | 1011.6 |
| 20260902040305 | 80 | 332 | 0.0 | 0.0 | 0.00 | 0.00 | 0.00 | 89 | 1011.8 |
| 20260902035803 | 80 | 328 | 0.0 | 0.9 | 0.00 | 0.00 | 0.00 | 89 | 1011.7 |
| 20260902035259 | 80 | 335 | 0.0 | 0.0 | 0.00 | 0.00 | 0.00 | 89 | 1011.6 |
| 20260902034758 | 80 | 337 | 0.0 | 0.0 | 0.00 | 0.00 | 0.00 | 89 | 1011.6 |
| 20260902034253 | 80 | 336 | 0.0 | 0.0 | 0.00 | 0.00 | 0.00 | 89 | 1011.6 |
| 20260902033751 | 80 | 329 | 0.0 | 0.9 | 0.00 | 0.00 | 0.00 | 89 | 1011.6 |
| 20260902033247 | 80 | 336 | 0.0 | 0.0 | 0.00 | 0.00 | 0.00 | 89 | 1011.4 |
| 20260902032745 | 80 | 328 | 0.0 | 0.0 | 0.00 | 0.00 | 0.00 | 88 | 1011.6 |
| 20260902032241 | 80 | 328 | 0.0 | 0.0 | 0.00 | 0.00 | 0.00 | 88 | 1011.5 |
| 20260902031740 | 80 | 328 | 0.0 | 0.0 | 0.00 | 0.00 | 0.00 | 88 | 1011.5 |
| 20260902031236 | 81 | 328 | 0.0 | 0.0 | 0.00 | 0.00 | 0.00 | 88 | 1011.6 |
| 20260902030732 | 81 | 327 | 0.0 | 0.0 | 0.00 | 0.00 | 0.00 | 88 | 1011.6 |
| 20260902030231 | 81 | 326 | 0.0 | 0.9 | 0.00 | 0.00 | 0.00 | 88 | 1011.6 |
| 20260902025730 | 81 | 330 | 0.0 | 0.0 | 0.00 | 0.00 | 0.00 | 88 | 1011.5 |
| 20260902025226 | 81 | 328 | 0.0 | 0.9 | 0.00 | 0.00 | 0.00 | 88 | 1011.3 |
| 20260902024721 | 81 | 328 | 0.0 | 0.0 | 0.00 | 0.00 | 0.00 | 88 | 1011.5 |
| 20260902024216 | 81 | 329 | 0.0 | 0.9 | 0.00 | 0.00 | 0.00 | 88 | 1011.6 |
| 20260902023712 | 80 | 334 | 0.0 | 0.0 | 0.00 | 0.00 | 0.00 | 88 | 1011.6 |
| 20260902023207 | 80 | 331 | 0.0 | 0.9 | 0.00 | 0.00 | 0.00 | 88 | 1011.6 |
| 20260902022707 | 81 | 332 | 0.0 | 0.9 | 0.00 | 0.00 | 0.00 | 87 | 1011.7 |
| 20260902022202 | 81 | 336 | 0.0 | 0.0 | 0.00 | 0.00 | 0.00 | 87 | 1011.7 |
| 20260902021658 | 81 | 336 | 0.0 | 0.0 | 0.00 | 0.00 | 0.00 | 87 | 1011.4 |
| 20260902021152 | 82 | 336 | 0.0 | 0.0 | 0.00 | 0.00 | 0.00 | 87 | 1011.5 |
| 20260902020648 | 82 | 336 | 0.0 | 0.0 | 0.00 | 0.00 | 0.00 | 86 | 1011.5 |
| 20260902020144 | 82 | 336 | 0.0 | 0.0 | 0.00 | 0.00 | 0.00 | 86 | 1011.3 |
| 20260902015639 | 82 | 336 | 0.0 | 0.0 | 0.00 | 0.00 | 0.00 | 86 | 1011.4 |
| 20260902015136 | 82 | 336 | 0.0 | 0.0 | 0.00 | 0.00 | 0.00 | 85 | 1011.4 |
| 20260902014631 | 82 | 336 | 0.0 | 0.0 | 0.00 | 0.00 | 0.00 | 85 | 1011.3 |
| 20260902014126 | 82 | 335 | 0.0 | 0.0 | 0.00 | 0.00 | 0.00 | 85 | 1011.1 |
| 20260902013626 | 82 | 334 | 0.0 | 0.0 | 0.00 | 0.00 | 0.00 | 85 | 1011.0 |
| 20260902013121 | 82 | 333 | 0.0 | 0.0 | 0.00 | 0.00 | 0.00 | 84 | 1011.0 |
| 20260902012617 | 82 | 334 | 0.0 | 0.0 | 0.00 | 0.00 | 0.00 | 84 | 1011.1 |
| 20260902012112 | 83 | 333 | 0.0 | 0.0 | 0.00 | 0.00 | 0.00 | 84 | 1011.1 |
| 20260902011608 | 83 | 334 | 0.0 | 0.0 | 0.00 | 0.00 | 0.00 | 84 | 1011.0 |
| 20260902011107 | 83 | 334 | 0.0 | 0.0 | 0.00 | 0.00 | 0.00 | 84 | 1010.9 |
| 20260902010607 | 83 | 334 | 0.0 | 0.0 | 0.00 | 0.00 | 0.00 | 84 | 1010.9 |
| 20260902005600 | 84 | 331 | 0.0 | 0.0 | 0.00 | 0.00 | 0.00 | 82 | 1010.8 |
| 20260902005057 | 84 | 331 | 0.0 | 0.0 | 0.00 | 0.00 | 0.00 | 82 | 1010.8 |
| 20260902004555 | 84 | 332 | 0.0 | 0.0 | 0.00 | 0.00 | 0.00 | 81 | 1010.7 |
| 20260902004051 | 85 | 331 | 0.0 | 0.0 | 0.00 | 0.00 | 0.00 | 81 | 1010.6 |
| 20260902003546 | 85 | 332 | 0.0 | 0.0 | 0.00 | 0.00 | 0.00 | 80 | 1010.5 |
| 20260902003042 | 85 | 332 | 0.0 | 0.0 | 0.00 | 0.00 | 0.00 | 80 | 1010.8 |
| 20260902002538 | 85 | 331 | 0.0 | 0.0 | 0.00 | 0.00 | 0.00 | 79 | 1010.6 |
| 20260902002032 | 86 | 327 | 0.0 | 0.0 | 0.00 | 0.00 | 0.00 | 79 | 1010.7 |
| 20260902001527 | 86 | 327 | 0.0 | 0.0 | 0.00 | 0.00 | 0.00 | 79 | 1010.6 |
| 20260902001022 | 86 | 326 | 0.0 | 0.0 | 0.00 | 0.00 | 0.00 | 78 | 1010.4 |
| 20260902000517 | 86 | 326 | 0.0 | 0.0 | 0.00 | 0.00 | 0.00 | 78 | 1010.6 |
| 20260902000012 | 87 | 329 | 0.0 | 0.0 | 0.00 | 0.00 | 0.00 | 77 | 1010.5 |
| 20260901235507 | 87 | 32 | 0.0 | 0.0 | 0.00 | 0.00 | 0.00 | 76 | 1010.6 |
| 20260901235003 | 87 | 31 | 0.0 | 0.0 | 0.00 | 0.00 | 0.00 | 74 | 1010.8 |
| 20260901234501 | 88 | 31 | 0.0 | 0.0 | 0.00 | 0.00 | 0.00 | 73 | 1010.7 |
| 20260901233956 | 88 | 31 | 0.0 | 0.0 | 0.00 | 0.00 | 0.00 | 72 | 1010.7 |
| 20260901233451 | 89 | 31 | 0.0 | 0.0 | 0.00 | 0.00 | 0.00 | 71 | 1010.8 |
| 20260901232947 | 90 | 31 | 0.0 | 0.0 | 0.00 | 0.00 | 0.00 | 70 | 1010.7 |
| 20260901232442 | 90 | 31 | 0.0 | 0.0 | 0.00 | 0.00 | 0.00 | 68 | 1010.5 |
| 20260901231937 | 91 | 31 | 0.0 | 0.0 | 0.00 | 0.00 | 0.00 | 66 | 1010.8 |
| 20260901231434 | 91 | 31 | 0.0 | 0.0 | 0.00 | 0.00 | 0.00 | 64 | 1010.7 |
| 20260901230930 | 91 | 31 | 0.0 | 0.0 | 0.00 | 0.00 | 0.00 | 65 | 1010.7 |
| 20260901230429 | 91 | 31 | 0.0 | 0.0 | 0.00 | 0.00 | 0.00 | 61 | 1010.9 |
| 20260901225925 | 91 | 31 | 0.0 | 0.0 | 0.00 | 0.00 | 0.00 | 55 | 1010.6 |
| 20260901225424 | 91 | 31 | 0.0 | 0.0 | 0.00 | 0.00 | 0.00 | 54 | 1010.7 |
| 20260901224919 | 92 | 31 | 0.0 | 0.0 | 0.00 | 0.00 | 0.00 | 55 | 1010.8 |
| 20260901224416 | 92 | 31 | 0.0 | 0.0 | 0.00 | 0.00 | 0.00 | 53 | 1010.8 |
| 20260901223912 | 92 | 31 | 0.0 | 0.0 | 0.00 | 0.00 | 0.00 | 54 | 1010.7 |
| 20260901223407 | 92 | 31 | 0.0 | 0.9 | 0.00 | 0.00 | 0.00 | 54 | 1010.8 |
| 20260901222902 | 92 | 31 | 0.0 | 0.9 | 0.00 | 0.00 | 0.00 | 53 | 1010.9 |
| 20260901222359 | 92 | 31 | 0.0 | 0.9 | 0.00 | 0.00 | 0.00 | 52 | 1010.6 |
| 20260901221854 | 92 | 31 | 0.0 | 0.0 | 0.00 | 0.00 | 0.00 | 53 | 1010.9 |
| 20260901221350 | 93 | 31 | 0.0 | 0.0 | 0.00 | 0.00 | 0.00 | 53 | 1010.7 |
| 20260901220850 | 93 | 31 | 0.0 | 0.9 | 0.00 | 0.00 | 0.00 | 53 | 1010.8 |
| 20260901220348 | 93 | 31 | 0.0 | 0.0 | 0.00 | 0.00 | 0.00 | 53 | 1010.4 |
| 20260901215848 | 93 | 31 | 0.0 | 0.0 | 0.00 | 0.00 | 0.00 | 53 | 1010.5 |
| 20260901215347 | 93 | 31 | 0.0 | 0.0 | 0.00 | 0.00 | 0.00 | 53 | 1010.7 |
| 20260901214846 | 94 | 18 | 0.0 | 0.0 | 0.00 | 0.00 | 0.00 | 52 | 1010.5 |
| 20260901214345 | 94 | 17 | 0.0 | 0.0 | 0.00 | 0.00 | 0.00 | 51 | 1010.6 |
| 20260901213845 | 94 | 17 | 0.0 | 0.0 | 0.00 | 0.00 | 0.00 | 50 | 1010.9 |
| 20260901213339 | 94 | 17 | 0.0 | 1.7 | 0.00 | 0.00 | 0.00 | 49 | 1010.6 |
| 20260901212834 | 94 | 354 | 2.6 | 2.6 | 0.00 | 0.00 | 0.00 | 51 | 1010.6 |
| 20260901212330 | 94 | 15 | 0.9 | 1.7 | 0.00 | 0.00 | 0.00 | 52 | 1010.7 |
| 20260901211826 | 94 | 345 | 1.7 | 1.7 | 0.00 | 0.00 | 0.00 | 50 | 1010.5 |
| 20260901211321 | 94 | 8 | 0.9 | 2.6 | 0.00 | 0.00 | 0.00 | 50 | 1010.6 |
| 20260901210816 | 94 | 18 | 1.7 | 1.7 | 0.00 | 0.00 | 0.00 | 52 | 1010.7 |
| 20260901210312 | 94 | 30 | 0.9 | 0.9 | 0.00 | 0.00 | 0.00 | 49 | 1010.7 |
| 20260901205808 | 94 | 29 | 0.0 | 0.9 | 0.00 | 0.00 | 0.00 | 49 | 1010.7 |
| 20260901205308 | 93 | 10 | 0.9 | 0.9 | 0.00 | 0.00 | 0.00 | 50 | 1010.7 |
| 20260901204804 | 93 | 14 | 0.9 | 2.6 | 0.00 | 0.00 | 0.00 | 50 | 1010.7 |
| 20260901204300 | 93 | 342 | 2.6 | 2.6 | 0.00 | 0.00 | 0.00 | 52 | 1010.8 |
| 20260901203759 | 93 | 348 | 1.7 | 2.6 | 0.00 | 0.00 | 0.00 | 52 | 1010.9 |
| 20260901203300 | 93 | 345 | 1.7 | 1.7 | 0.00 | 0.00 | 0.00 | 50 | 1010.7 |
| 20260901202754 | 93 | 357 | 1.7 | 1.7 | 0.00 | 0.00 | 0.00 | 53 | 1010.8 |
| 20260901202250 | 93 | 7 | 1.7 | 2.6 | 0.00 | 0.00 | 0.00 | 51 | 1011.0 |
| 20260901201745 | 93 | 343 | 2.6 | 2.6 | 0.00 | 0.00 | 0.00 | 52 | 1011.1 |
| 20260901201244 | 93 | 342 | 1.7 | 2.6 | 0.00 | 0.00 | 0.00 | 51 | 1011.1 |
| 20260901200738 | 93 | 309 | 2.6 | 2.6 | 0.00 | 0.00 | 0.00 | 54 | 1011.2 |
| 20260901200234 | 94 | 10 | 0.9 | 1.7 | 0.00 | 0.00 | 0.00 | 52 | 1011.1 |
| 20260901195732 | 95 | 5 | 0.9 | 1.7 | 0.00 | 0.00 | 0.00 | 49 | 1011.2 |
| 20260901195226 | 94 | 0 | 0.9 | 1.7 | 0.00 | 0.00 | 0.00 | 50 | 1011.4 |